![]() |
EMODnet Physics ERDDAP
Easier access to scientific data |
log in|
Brought to you by EMODnet Physics |
| Dataset Title: | NDBC - Collection of dew point temperature (DEWT) TimeSeries - IN SITU MultiPointTimeSeriesObservation
|
| Institution: | NDBC (Dataset ID: TS_DEWT_NDBC) |
| Information: | Summary
| License
| FGDC
| ISO 19115
| Metadata
| Background
| Subset
| Data Access Form
| Make a graph
|
| Name | Last modified | Size | Description | |
|---|---|---|---|---|
| Parent Directory | - | - | ||
| 45005_TS_DEWT_032023.nc | 19-Jan-2026 01:03 | 1625204 | ||
| 45005_TS_DEWT_042016.nc | 19-Jan-2026 00:10 | 1627552 | ||
| 45005_TS_DEWT_042017.nc | 19-Jan-2026 00:19 | 1473759 | ||
| 45005_TS_DEWT_042023.nc | 19-Jan-2026 01:03 | 1477835 | ||
| 45005_TS_DEWT_042024.nc | 19-Jan-2026 01:10 | 1477933 | ||
| 45005_TS_DEWT_052016.nc | 19-Jan-2026 00:11 | 1476859 | ||
| 45005_TS_DEWT_052017.nc | 19-Jan-2026 00:21 | 1477778 | ||
| 45005_TS_DEWT_052018.nc | 19-Jan-2026 00:29 | 1477975 | ||
| 45005_TS_DEWT_052019.nc | 19-Jan-2026 00:36 | 1477273 | ||
| 45005_TS_DEWT_052022.nc | 19-Jan-2026 00:56 | 1477037 | ||
| 45005_TS_DEWT_052023.nc | 19-Jan-2026 01:04 | 1477216 | ||
| 45005_TS_DEWT_052024.nc | 19-Jan-2026 01:11 | 1474019 | ||
| 45005_TS_DEWT_052025.nc | 19-Jan-2026 01:18 | 1475223 | ||
| 45005_TS_DEWT_062016.nc | 19-Jan-2026 00:11 | 1472717 | ||
| 45005_TS_DEWT_062017.nc | 19-Jan-2026 00:22 | 1477692 | ||
| 45005_TS_DEWT_062018.nc | 19-Jan-2026 00:29 | 1477906 | ||
| 45005_TS_DEWT_062019.nc | 19-Jan-2026 00:37 | 1476534 | ||
| 45005_TS_DEWT_062021.nc | 19-Jan-2026 00:47 | 1477277 | ||
| 45005_TS_DEWT_062022.nc | 19-Jan-2026 00:57 | 1627820 | ||
| 45005_TS_DEWT_062023.nc | 19-Jan-2026 01:05 | 1627789 | ||
| 45005_TS_DEWT_062024.nc | 19-Jan-2026 01:12 | 1627751 | ||
| 45005_TS_DEWT_062025.nc | 19-Jan-2026 01:19 | 1627450 | ||
| 45005_TS_DEWT_072016.nc | 19-Jan-2026 00:13 | 1627793 | ||
| 45005_TS_DEWT_072017.nc | 19-Jan-2026 00:23 | 1627600 | ||
| 45005_TS_DEWT_072018.nc | 19-Jan-2026 00:31 | 1627734 | ||
| 45005_TS_DEWT_072019.nc | 19-Jan-2026 00:38 | 1627470 | ||
| 45005_TS_DEWT_072020.nc | 19-Jan-2026 00:42 | 1473855 | ||
| 45005_TS_DEWT_072021.nc | 19-Jan-2026 00:48 | 1477293 | ||
| 45005_TS_DEWT_072022.nc | 19-Jan-2026 00:58 | 1478602 | ||
| 45005_TS_DEWT_072023.nc | 19-Jan-2026 01:06 | 1478546 | ||
| 45005_TS_DEWT_072024.nc | 19-Jan-2026 01:13 | 1627749 | ||
| 45005_TS_DEWT_072025.nc | 19-Jan-2026 01:19 | 1627010 | ||
| 45005_TS_DEWT_082016.nc | 19-Jan-2026 00:14 | 1476589 | ||
| 45005_TS_DEWT_082017.nc | 19-Jan-2026 00:24 | 1476881 | ||
| 45005_TS_DEWT_082018.nc | 19-Jan-2026 00:32 | 1476648 | ||
| 45005_TS_DEWT_082019.nc | 19-Jan-2026 00:39 | 1477841 | ||
| 45005_TS_DEWT_082020.nc | 19-Jan-2026 00:43 | 1477660 | ||
| 45005_TS_DEWT_082021.nc | 19-Jan-2026 00:50 | 1477838 | ||
| 45005_TS_DEWT_082022.nc | 19-Jan-2026 00:59 | 1476950 | ||
| 45005_TS_DEWT_082023.nc | 19-Jan-2026 01:07 | 1477895 | ||
| 45005_TS_DEWT_082024.nc | 19-Jan-2026 01:15 | 1477216 | ||
| 45005_TS_DEWT_082025.nc | 19-Jan-2026 01:20 | 1477925 | ||
| 45005_TS_DEWT_092016.nc | 19-Jan-2026 00:15 | 1475139 | ||
| 45005_TS_DEWT_092017.nc | 19-Jan-2026 00:26 | 1477651 | ||
| 45005_TS_DEWT_092019.nc | 19-Jan-2026 00:40 | 1477560 | ||
| 45005_TS_DEWT_092020.nc | 19-Jan-2026 00:44 | 1477962 | ||
| 45005_TS_DEWT_092021.nc | 19-Jan-2026 00:51 | 1476564 | ||
| 45005_TS_DEWT_092022.nc | 19-Jan-2026 01:00 | 1627177 | ||
| 45005_TS_DEWT_092023.nc | 19-Jan-2026 01:08 | 1627791 | ||
| 45005_TS_DEWT_092024.nc | 19-Jan-2026 01:16 | 1157760 | ||
| 45005_TS_DEWT_092025.nc | 19-Jan-2026 01:21 | 1162850 | ||
| 45005_TS_DEWT_102016.nc | 19-Jan-2026 00:17 | 604311 | ||
| 45005_TS_DEWT_102017.nc | 19-Jan-2026 00:27 | 1627800 | ||
| 45005_TS_DEWT_102018.nc | 19-Jan-2026 00:33 | 1626554 | ||
| 45005_TS_DEWT_102019.nc | 19-Jan-2026 00:41 | 1627444 | ||
| 45005_TS_DEWT_102020.nc | 19-Jan-2026 00:45 | 1626698 | ||
| 45005_TS_DEWT_102021.nc | 19-Jan-2026 00:53 | 1626643 | ||
| 45005_TS_DEWT_102022.nc | 19-Jan-2026 01:01 | 1478224 | ||
| 45005_TS_DEWT_102023.nc | 19-Jan-2026 01:09 | 1625574 | ||
| 45005_TS_DEWT_102024.nc | 19-Jan-2026 01:17 | 1627732 | ||
| 45005_TS_DEWT_102025.nc | 19-Jan-2026 01:22 | 1627537 | ||
| 45005_TS_DEWT_112016.nc | 19-Jan-2026 00:18 | 1626800 | ||
| 45005_TS_DEWT_112017.nc | 19-Jan-2026 00:28 | 431011 | ||
| 45005_TS_DEWT_112018.nc | 19-Jan-2026 00:35 | 1627615 | ||
| 45005_TS_DEWT_112019.nc | 19-Jan-2026 00:42 | 1627731 | ||
| 45005_TS_DEWT_112020.nc | 19-Jan-2026 00:47 | 591444 | ||
| 45005_TS_DEWT_112021.nc | 19-Jan-2026 00:54 | 996337 | ||
| 45005_TS_DEWT_112022.nc | 19-Jan-2026 01:01 | 1475718 | ||
| 45005_TS_DEWT_112023.nc | 19-Jan-2026 01:10 | 1627740 | ||
| 45005_TS_DEWT_112024.nc | 19-Jan-2026 01:17 | 1627292 | ||
| 45005_TS_DEWT_112025.nc | 19-Jan-2026 01:22 | 1627848 | ||
| 45005_TS_DEWT_122016.nc | 19-Jan-2026 00:19 | 1627700 | ||
| 45005_TS_DEWT_122022.nc | 19-Jan-2026 01:02 | 1625984 | ||
| 45005_TS_DEWT_122023.nc | 19-Jan-2026 01:10 | 1626690 | ||
| 45005_TS_DEWT_122024.nc | 19-Jan-2026 01:18 | 1626094 | ||